Total_Precipitation_Accumulation
0.21 0.20 0.23 0.34 0.42 0.35 0.19 0.08 0.06 0.07 0.07 0.07 0.06 0.07 0.09 0.12 0.16 0.23 0.18 0.17 0.24 0.25 0.34 0.62 0.99 1.27 1.28 1.19 1.08 0.94 0.91 0.98 1.11 1.20 1.07 1.04 1.04 1.04 0.96 1.00 1.08 1.22 1.23 1.11 1.02 0.93 0.73 0.60 0.44
0.26 0.31 0.41 0.50 0.42 0.29 0.15 0.08 0.06 0.08 0.09 0.09 0.09 0.09 0.12 0.15 0.16 0.16 0.17 0.20 0.26 0.30 0.38 0.61 1.00 1.29 1.34 1.24 1.10 0.97 0.95 1.02 1.13 1.29 1.28 1.19 1.12 1.11 1.11 1.05 1.08 1.13 1.05 0.94 0.76 0.68 0.54 0.45 0.38
0.41 0.52 0.67 0.58 0.36 0.24 0.14 0.09 0.09 0.09 0.09 0.13 0.13 0.12 0.18 0.24 0.23 0.21 0.19 0.22 0.29 0.38 0.47 0.70 1.05 1.36 1.42 1.29 1.15 1.02 1.01 1.10 1.19 1.25 1.36 1.34 1.23 1.25 1.25 1.14 1.02 0.99 0.93 0.80 0.62 0.52 0.40 0.34 0.31
0.64 0.90 0.87 0.60 0.30 0.16 0.13 0.11 0.10 0.11 0.11 0.12 0.13 0.18 0.24 0.26 0.28 0.26 0.23 0.26 0.32 0.49 0.63 0.82 1.10 1.41 1.53 1.41 1.26 1.11 1.12 1.20 1.27 1.31 1.42 1.42 1.40 1.46 1.37 1.13 0.95 0.85 0.76 0.65 0.56 0.47 0.36 0.30 0.28
0.94 1.12 0.91 0.53 0.25 0.13 0.12 0.14 0.14 0.14 0.16 0.16 0.16 0.24 0.30 0.29 0.31 0.32 0.31 0.33 0.37 0.55 0.80 1.04 1.28 1.49 1.69 1.63 1.51 1.39 1.31 1.31 1.36 1.40 1.44 1.46 1.44 1.47 1.37 1.06 0.88 0.79 0.72 0.65 0.56 0.47 0.37 0.31 0.28
1.30 1.18 0.88 0.49 0.21 0.14 0.12 0.15 0.16 0.18 0.19 0.21 0.24 0.34 0.46 0.44 0.52 0.54 0.50 0.52 0.56 0.67 0.90 1.25 1.63 1.75 1.90 1.90 1.72 1.64 1.49 1.43 1.45 1.47 1.49 1.50 1.51 1.49 1.40 1.09 0.91 0.81 0.78 0.73 0.62 0.49 0.41 0.32 0.27
1.30 1.09 0.71 0.40 0.20 0.19 0.15 0.17 0.20 0.22 0.26 0.26 0.30 0.44 0.61 0.72 0.79 0.84 0.85 0.89 0.91 0.97 1.05 1.28 1.65 1.88 2.04 2.06 1.81 1.77 1.65 1.49 1.49 1.54 1.57 1.46 1.41 1.42 1.35 1.11 0.97 0.90 0.89 0.86 0.75 0.61 0.49 0.36 0.30
1.22 1.16 0.66 0.41 0.26 0.22 0.17 0.18 0.23 0.28 0.34 0.33 0.39 0.53 0.68 0.84 1.00 1.21 1.30 1.37 1.38 1.42 1.41 1.45 1.67 1.88 2.12 2.18 1.85 1.69 1.61 1.54 1.51 1.49 1.41 1.24 1.15 1.18 1.20 1.08 0.99 0.92 0.94 0.92 0.80 0.69 0.56 0.43 0.34
1.17 1.27 0.71 0.40 0.30 0.27 0.20 0.20 0.27 0.32 0.41 0.45 0.48 0.51 0.69 0.97 1.26 1.58 1.77 1.87 1.87 1.85 1.86 1.82 1.85 1.88 2.04 2.18 2.01 1.87 1.73 1.61 1.51 1.44 1.27 1.19 1.14 1.09 0.98 0.90 0.87 0.88 0.92 0.96 0.86 0.74 0.63 0.44 0.32
1.27 1.10 0.62 0.36 0.33 0.32 0.29 0.28 0.33 0.42 0.52 0.61 0.65 0.69 0.90 1.24 1.57 1.75 1.89 1.95 2.00 1.97 1.98 2.03 2.06 2.03 2.08 2.10 2.10 2.03 1.84 1.69 1.54 1.36 1.24 1.22 1.23 1.15 0.99 0.92 0.85 0.89 0.94 1.01 0.96 0.80 0.68 0.48 0.38
1.09 0.78 0.52 0.40 0.39 0.40 0.47 0.45 0.44 0.52 0.61 0.64 0.76 0.86 1.08 1.44 1.67 1.83 2.01 2.14 2.25 2.22 2.14 2.13 2.22 2.29 2.23 2.20 2.10 2.02 1.82 1.74 1.68 1.51 1.32 1.29 1.41 1.33 1.25 1.07 0.94 0.95 0.92 0.94 0.92 0.84 0.68 0.51 0.41
0.87 0.60 0.54 0.45 0.42 0.45 0.52 0.55 0.52 0.56 0.66 0.63 0.73 0.93 1.16 1.50 1.60 1.79 2.04 2.27 2.55 2.61 2.48 2.46 2.55 2.56 2.47 2.35 2.20 2.08 1.87 1.70 1.66 1.59 1.54 1.44 1.41 1.29 1.23 1.13 0.95 0.90 0.88 0.88 0.91 0.81 0.72 0.64 0.52
0.81 0.62 0.57 0.54 0.48 0.47 0.52 0.55 0.61 0.56 0.61 0.68 0.80 1.07 1.37 1.63 1.85 1.98 2.23 2.47 2.72 2.83 2.86 2.81 2.87 2.91 2.80 2.66 2.44 2.15 1.99 1.78 1.65 1.63 1.62 1.52 1.42 1.32 1.25 1.17 1.12 0.97 0.90 0.87 0.94 0.93 0.82 0.76 0.69
0.76 0.68 0.64 0.64 0.59 0.56 0.64 0.57 0.64 0.64 0.62 0.76 0.92 1.11 1.38 1.61 1.98 2.16 2.35 2.49 2.67 2.86 3.05 3.18 3.20 3.15 3.06 2.87 2.63 2.30 2.16 1.98 1.85 1.76 1.66 1.59 1.55 1.52 1.44 1.28 1.18 1.09 0.99 0.93 0.99 1.01 0.92 0.86 0.77
0.80 0.85 0.80 0.76 0.73 0.70 0.73 0.76 0.61 0.60 0.64 0.73 0.87 1.06 1.37 1.60 1.86 2.08 2.27 2.42 2.54 2.82 3.13 3.33 3.49 3.62 3.40 3.18 2.91 2.60 2.42 2.25 2.09 1.91 1.77 1.66 1.60 1.66 1.63 1.52 1.29 1.15 1.14 1.11 1.10 1.14 1.13 1.02 0.87
1.07 1.15 1.04 0.75 0.76 0.77 0.83 0.82 0.56 0.54 0.64 0.71 0.77 0.98 1.31 1.61 1.86 2.00 2.22 2.42 2.63 2.79 3.02 3.25 3.30 3.60 3.72 3.59 3.33 2.91 2.64 2.47 2.35 2.20 2.03 1.92 1.75 1.77 1.83 1.70 1.56 1.41 1.37 1.34 1.27 1.19 1.11 1.01 0.88
1.26 1.08 0.86 0.71 0.67 0.78 0.87 0.79 0.60 0.51 0.60 0.67 0.74 0.89 1.14 1.39 1.73 1.95 2.09 2.30 2.61 2.82 2.95 3.25 3.29 3.42 3.67 3.81 3.67 3.40 3.10 2.82 2.63 2.52 2.34 2.21 2.07 1.96 2.00 1.94 1.79 1.71 1.63 1.58 1.47 1.33 1.19 1.07 0.95
0.86 0.74 0.67 0.66 0.60 0.71 0.82 0.76 0.65 0.54 0.56 0.67 0.72 0.81 1.00 1.17 1.40 1.65 1.86 2.16 2.50 2.90 3.16 3.37 3.55 3.60 3.82 4.23 4.23 3.93 3.66 3.35 3.12 2.89 2.70 2.57 2.45 2.31 2.18 2.18 2.12 2.01 1.84 1.73 1.70 1.56 1.39 1.22 1.15
0.64 0.67 0.60 0.52 0.48 0.66 0.71 0.67 0.69 0.66 0.65 0.67 0.70 0.74 0.88 1.08 1.23 1.45 1.68 2.07 2.32 2.63 2.98 3.11 3.40 3.63 3.82 4.04 4.09 3.86 3.59 3.38 3.21 3.17 3.08 2.88 2.72 2.65 2.49 2.30 2.33 2.28 2.07 1.82 1.80 1.80 1.65 1.50 1.46
0.77 0.83 0.66 0.56 0.50 0.64 0.67 0.62 0.67 0.74 0.74 0.67 0.64 0.68 0.77 0.95 1.09 1.26 1.51 1.87 2.07 2.27 2.51 2.73 2.98 3.27 3.49 3.61 3.70 3.79 3.80 3.56 3.28 3.19 3.20 3.14 3.03 2.88 2.68 2.51 2.41 2.38 2.34 2.10 1.91 1.96 1.93 1.77 1.72
0.86 0.81 0.69 0.66 0.61 0.70 0.72 0.74 0.67 0.71 0.73 0.73 0.70 0.70 0.77 0.93 1.00 1.12 1.32 1.70 1.91 2.01 2.20 2.41 2.67 2.86 3.00 3.37 3.69 3.78 4.02 3.95 3.51 3.13 2.95 3.07 3.17 3.15 2.95 2.71 2.64 2.58 2.57 2.48 2.28 2.15 2.12 2.05 1.93
0.95 0.60 0.62 0.70 0.96 1.07 0.83 1.03 0.76 0.69 0.69 0.75 0.79 0.80 0.86 0.94 1.01 1.10 1.19 1.42 1.65 1.73 1.92 2.19 2.49 2.73 2.80 3.10 3.37 3.40 3.36 3.43 3.21 3.00 2.96 3.07 3.14 3.20 3.20 3.02 2.79 2.69 2.66 2.62 2.68 2.67 2.50 2.37 2.16
0.79 0.58 0.70 0.82 1.03 1.15 0.81 0.96 0.86 0.64 0.75 0.81 0.83 0.88 0.95 0.92 0.95 1.08 1.16 1.24 1.42 1.54 1.64 1.89 2.26 2.57 2.73 2.85 3.05 3.25 3.25 3.24 3.30 3.24 3.12 3.03 2.98 3.05 3.19 3.16 2.98 2.68 2.52 2.45 2.52 2.63 2.69 2.54 2.31
0.80 0.92 1.06 1.13 1.51 1.62 0.75 0.83 0.91 0.81 0.87 0.81 0.77 0.85 0.93 0.88 0.93 1.01 1.05 1.10 1.29 1.38 1.41 1.61 1.89 2.31 2.69 2.82 2.87 2.97 3.02 2.97 3.06 3.19 3.16 3.10 2.97 2.89 2.96 2.98 2.91 2.76 2.54 2.39 2.40 2.54 2.63 2.67 2.57
1.25 1.87 2.41 2.33 2.19 1.25 0.47 0.67 0.95 0.84 0.77 0.79 0.78 0.78 0.85 0.88 0.92 0.96 1.00 1.10 1.18 1.29 1.31 1.41 1.56 1.90 2.33 2.58 2.63 2.69 2.77 2.78 2.75 2.90 3.06 3.07 2.94 2.78 2.83 2.93 2.85 2.78 2.59 2.48 2.41 2.43 2.43 2.46 2.51
1.23 1.64 1.95 1.61 1.06 0.60 0.43 0.67 0.88 0.76 0.67 0.64 0.60 0.61 0.71 0.79 0.83 0.86 0.89 0.95 0.99 1.05 1.17 1.28 1.37 1.54 1.80 2.08 2.27 2.42 2.53 2.57 2.47 2.47 2.72 2.85 2.77 2.68 2.69 2.83 2.83 2.76 2.67 2.57 2.46 2.38 2.32 2.30 2.30
1.22 1.32 1.17 1.47 1.03 0.72 0.57 0.61 0.64 0.51 0.52 0.53 0.51 0.52 0.62 0.65 0.69 0.72 0.74 0.78 0.80 0.84 0.95 1.09 1.14 1.22 1.40 1.66 1.91 2.13 2.25 2.38 2.41 2.31 2.39 2.65 2.69 2.56 2.52 2.60 2.66 2.64 2.59 2.57 2.51 2.39 2.24 2.17 2.15
1.11 1.11 1.36 2.08 1.72 1.02 0.59 0.53 0.66 0.57 0.54 0.57 0.54 0.51 0.54 0.55 0.59 0.63 0.66 0.71 0.75 0.78 0.75 0.80 0.94 1.09 1.22 1.34 1.61 1.83 2.00 2.13 2.23 2.29 2.28 2.34 2.43 2.43 2.35 2.35 2.43 2.49 2.45 2.43 2.48 2.37 2.20 2.15 2.05
1.13 1.38 1.58 1.71 1.46 1.29 0.88 0.74 0.69 0.60 0.58 0.59 0.57 0.52 0.52 0.52 0.58 0.61 0.62 0.66 0.74 0.78 0.71 0.68 0.79 0.94 1.05 1.12 1.32 1.50 1.66 1.85 1.99 2.08 2.11 2.12 2.17 2.25 2.30 2.26 2.30 2.39 2.43 2.38 2.38 2.37 2.27 2.14 2.01
0.96 1.13 1.40 1.94 1.53 1.18 1.01 0.82 0.60 0.52 0.51 0.54 0.57 0.56 0.54 0.57 0.63 0.62 0.61 0.63 0.71 0.79 0.78 0.72 0.76 0.82 0.94 1.02 1.12 1.33 1.42 1.57 1.75 1.88 1.91 1.92 1.96 2.00 2.03 2.08 2.12 2.15 2.20 2.25 2.26 2.25 2.21 2.16 2.04